Weather History for TJSJ - June, 2013

Change the Weather History Date:

Friday, June 14, 2013

  Actual Average Record
Temperature  
Mean Temperature 84 °F 83 °F  
Max Temperature 90 °F 89 °F 96 °F (1983)
Min Temperature 77 °F 78 °F 72 °F (1960)
Degree Days  
Heating Degree Days 0 0  
Month to date heating degree days 0 0  
Since 1 June heating degree days 0 0  
Since 1 July heating degree days 0 0  
Cooling Degree Days 19 18  
Month to date cooling degree days 240 252  
Year to date cooling degree days 2487 2417  
Since 1 June cooling degree days 240 252  
Growing Degree Days 34 (Base 50)    
Moisture  
Dew Point 75 °F    
Average Humidity 75    
Maximum Humidity 91    
Minimum Humidity 59    
Precipitation  
Precipitation 0.11 in 0.14 in 2.15 in (1946)
Month to date precipitation 5.30 2.20  
Year to date precipitation 29.83 20.88  
Sea Level Pressure  
Sea Level Pressure 30.00 in    
Wind  
Wind Speed 11 mph (East)    
Max Wind Speed 23 mph    
Max Gust Speed 30 mph    
Visibility 9 miles    
Events Rain    
T = Trace of Precipitation, MM = Missing Value Source: NWS Daily Summary

Daily Weather History Graph

Daily Weather History Graph

Search for Another Location

Airport or City:

Trip Planner

Search our weather history database for the weather conditions in past years. The results will help you decide how hot, cold, wet, or windy it might be!

Date:

Astronomy

Jun. 14, 2013 Rise Set
Actual Time 5:47 AM AST 7:01 PM AST
Civil Twilight 5:23 AM AST 7:25 PM AST
Nautical Twilight 4:54 AM AST 7:54 PM AST
Astronomical Twilight 4:24 AM AST 8:23 PM AST
Moon 10:40 AM AST (6/14) 11:18 PM AST (6/14)
Length of Visible Light 14h 02m
Length of Day
13h 13m
Waxing Crescent, 30% of the Moon is Illuminated
Jun 14
Waxing Crescent
Jun 16
First Quarter
Jun 23
Full
Jun 30
Last Quarter
Jul 8
New

Hourly Weather History & Observations

Time (AST) Temp. Heat Index Dew Point Humidity Pressure Visibility Wind Dir Wind Speed Gust Speed Precip Events Conditions
12:56 AM 79.0 °F - 75.0 °F 88% 30.01 in 10.0 mi East 5.8 mph - N/A   Scattered Clouds
1:56 AM 79.0 °F - 75.0 °F 88% 30.00 in 10.0 mi ESE 3.5 mph - N/A   Scattered Clouds
2:56 AM 79.0 °F - 75.9 °F 90% 30.00 in 10.0 mi East 3.5 mph - 0.03 in   Mostly Cloudy
3:56 AM 78.1 °F - 73.9 °F 87% 29.99 in 10.0 mi East 15.0 mph 19.6 mph 0.00 in Rain Light Rain
4:56 AM 77.0 °F - 73.9 °F 90% 29.99 in 10.0 mi ESE 4.6 mph - 0.02 in   Mostly Cloudy
5:56 AM 78.1 °F - 75.0 °F 90% 29.99 in 9.0 mi East 4.6 mph - 0.00 in Rain Light Rain
6:56 AM 79.0 °F - 75.9 °F 90% 30.01 in 9.0 mi Calm Calm - 0.00 in   Mostly Cloudy
7:56 AM 80.1 °F 85.8 °F 77.0 °F 90% 30.02 in 9.0 mi SE 3.5 mph - 0.04 in Rain Light Rain
8:56 AM 84.0 °F 94.8 °F 78.1 °F 82% 30.02 in 9.0 mi East 11.5 mph - 0.00 in   Mostly Cloudy
9:56 AM 86.0 °F 96.0 °F 75.9 °F 72% 30.02 in 9.0 mi East 12.7 mph 20.7 mph N/A   Scattered Clouds
10:56 AM 87.1 °F 96.3 °F 75.0 °F 67% 30.02 in 9.0 mi East 17.3 mph 24.2 mph N/A   Scattered Clouds
11:56 AM 89.1 °F 98.0 °F 73.9 °F 61% 30.01 in 9.0 mi East 15.0 mph 25.3 mph N/A   Scattered Clouds
12:56 PM 89.1 °F 97.0 °F 73.0 °F 59% 29.99 in 9.0 mi East 19.6 mph 29.9 mph N/A   Scattered Clouds
1:56 PM 88.0 °F 96.5 °F 73.9 °F 63% 29.98 in 9.0 mi East 18.4 mph 26.5 mph N/A   Scattered Clouds
2:56 PM 88.0 °F 96.5 °F 73.9 °F 63% 29.97 in 6.0 mi East 16.1 mph 26.5 mph N/A   Haze
3:56 PM 87.1 °F 95.4 °F 73.9 °F 65% 29.96 in 6.0 mi East 15.0 mph 24.2 mph N/A   Haze
4:56 PM 86.0 °F 93.8 °F 73.9 °F 67% 29.97 in 6.0 mi East 17.3 mph - N/A   Haze
5:56 PM 84.9 °F 92.1 °F 73.9 °F 69% 29.99 in 6.0 mi East 15.0 mph 23.0 mph N/A   Haze
6:56 PM 82.9 °F 89.4 °F 73.9 °F 74% 30.00 in 6.0 mi East 12.7 mph - N/A   Haze
7:56 PM 82.0 °F 87.9 °F 73.9 °F 76% 30.01 in 9.0 mi East 9.2 mph - N/A   Scattered Clouds
8:56 PM 82.0 °F 87.9 °F 73.9 °F 76% 30.03 in 9.0 mi East 10.4 mph - N/A   Partly Cloudy
9:56 PM 81.0 °F 86.7 °F 75.0 °F 82% 30.03 in 9.0 mi East 9.2 mph - N/A   Partly Cloudy
10:56 PM 81.0 °F 86.7 °F 75.0 °F 82% 30.03 in 9.0 mi East 8.1 mph - N/A   Partly Cloudy
11:56 PM 81.0 °F 87.3 °F 75.9 °F 85% 30.03 in 9.0 mi East 4.6 mph - 0.02 in   Overcast